Date String (YYYY-MM-DD hh:mm:ss) UTC,Instrument flags,Ambient pressure (hPa),Sample flow (lpm),Bypass flow (lpm),Sample temperature (°C),Ambient temperature (°C),ASC tube jacket temperature (°C),LED temperature (°C),Box temperature (°C),Sample RH (%),Span deviation,Mass concentration (μg/m³),Mass concentration (μg/m³),Mass concentration (μg/m³)
DateTimeUTC,F1_M11,P_M11,Q1_M11,Q2_M11,T1_M11,T2_M11,T3_M11,T4_M11,T5_M11,U1_M11,ZSPAN_M11,X0_M11,X2_M11,X1_M11
2022-05-29 09:00:00,,0812.7,5.00,0.00,29.3,28.2,00.0,38.2,31.1,14.8,0000.0,0015.38,0004.32,0002.25
2022-05-29 09:01:00,,0812.7,4.99,0.00,29.3,28.3,00.0,38.2,31.1,14.1,0000.0,0014.78,0004.28,0002.25
2022-05-29 09:02:00,,0812.7,5.00,0.00,29.3,28.3,00.0,38.2,31.1,13.8,0000.0,0013.35,0004.27,0002.26
2022-05-29 09:03:00,,0812.7,5.00,0.00,29.3,28.3,00.0,38.2,31.1,14.1,0000.0,0012.74,0004.34,0002.27
2022-05-29 09:04:00,,0812.7,5.02,0.00,29.3,28.3,00.0,38.2,31.1,14.6,0000.0,0012.15,0004.40,0002.30
2022-05-29 09:05:00,,0812.8,4.99,0.00,29.3,28.3,00.0,38.2,31.1,14.8,0000.0,0012.38,0004.44,0002.35
2022-05-29 09:06:00,,0812.8,4.99,0.00,29.3,28.3,00.0,38.2,31.2,15.0,0000.0,0013.15,0004.44,0002.40
2022-05-29 09:07:00,,0812.7,5.00,0.00,29.3,28.3,00.0,38.2,31.2,15.3,0000.0,0012.84,0004.40,0002.44
2022-05-29 09:08:00,,0812.8,5.01,0.00,29.3,28.3,00.0,38.2,31.2,15.2,0000.0,0012.69,0004.44,0002.46
2022-05-29 09:09:00,,0812.8,5.01,0.00,29.3,28.3,00.0,38.2,31.2,15.3,0000.0,0012.72,0004.41,0002.49
2022-05-29 09:10:00,,0812.8,4.99,0.00,29.3,28.3,00.0,38.2,31.2,15.4,0000.0,0012.83,0004.44,0002.53
2022-05-29 09:11:00,,0812.9,5.00,0.00,29.3,28.3,00.0,38.2,31.2,15.4,0000.0,0013.54,0004.46,0002.56
2022-05-29 09:12:00,,0812.9,5.00,0.00,29.4,28.4,00.0,38.2,31.2,15.5,0000.0,0014.24,0004.50,0002.61
2022-05-29 09:13:00,,0812.9,5.00,0.00,29.4,28.4,00.0,38.2,31.2,15.6,0000.0,0014.41,0004.53,0002.65
2022-05-29 09:14:00,,0813.2,5.00,0.00,29.4,28.4,00.0,38.3,31.2,15.6,0000.0,0014.78,0004.56,0002.71
2022-05-29 09:15:00,,0812.9,5.00,0.00,29.4,28.4,00.0,38.3,31.2,15.6,0000.0,0015.09,0004.50,0002.75
2022-05-29 09:16:00,,0812.9,5.01,0.00,29.4,28.4,00.0,38.3,31.2,15.5,0000.0,0015.58,0004.48,0002.75
2022-05-29 09:17:00,,0812.9,4.99,0.00,29.4,28.4,00.0,38.3,31.2,15.4,0000.0,0015.32,0004.47,0002.77
2022-05-29 09:18:00,,0812.9,4.99,0.00,29.4,28.4,00.0,38.3,31.2,15.4,0000.0,0015.07,0004.49,0002.78
2022-05-29 09:19:00,,0813.0,5.00,0.00,29.4,28.4,00.0,38.3,31.2,15.3,0000.0,0014.72,0004.51,0002.80
2022-05-29 09:20:00,,0813.0,5.00,0.00,29.4,28.4,00.0,38.3,31.3,15.4,0000.0,0014.47,0004.55,0002.81
2022-05-29 09:21:00,,0812.9,5.00,0.00,29.4,28.4,00.0,38.3,31.3,15.6,0000.0,0014.47,0004.55,0002.80
2022-05-29 09:22:00,,0812.9,5.00,0.00,29.4,28.4,00.0,38.3,31.3,15.5,0000.0,0014.73,0004.56,0002.82
2022-05-29 09:23:00,,0812.9,5.00,0.00,29.4,28.4,00.0,38.3,31.3,15.2,0000.0,0014.61,0004.55,0002.82
2022-05-29 09:24:00,,0812.9,5.00,0.00,29.4,28.4,00.0,38.3,31.3,14.6,0000.0,0014.93,0004.53,0002.81
2022-05-29 09:25:00,,0812.9,5.00,0.00,29.4,28.4,00.0,38.3,31.3,14.6,0000.0,0014.27,0004.46,0002.78
2022-05-29 09:26:00,,0812.9,5.01,0.00,29.4,28.4,00.0,38.3,31.3,14.4,0000.0,0013.81,0004.44,0002.74
2022-05-29 09:27:00,,0813.0,5.00,0.00,29.4,28.4,00.0,38.3,31.3,13.9,0000.0,0013.91,0004.45,0002.72
2022-05-29 09:28:00,,0813.1,4.99,0.00,29.4,28.4,00.0,38.3,31.2,13.8,0000.0,0013.99,0004.56,0002.71
2022-05-29 09:29:00,,0813.0,5.00,0.00,29.4,28.4,00.0,38.3,31.2,13.8,0000.0,0014.85,0004.63,0002.69
2022-05-29 09:30:00,,0813.0,5.01,0.00,29.4,28.4,00.0,38.4,31.2,13.9,0000.0,0015.96,0004.68,0002.68
2022-05-29 09:31:00,,0813.2,4.98,0.00,29.4,28.4,00.0,38.3,31.2,14.0,0000.0,0016.56,0004.68,0002.68
2022-05-29 09:32:00,,0813.0,5.01,0.00,29.4,28.3,00.0,38.3,31.2,14.2,0000.0,0017.32,0004.69,0002.65
2022-05-29 09:33:00,,0813.1,5.00,0.00,29.4,28.3,00.0,38.3,31.2,14.3,0000.0,0017.13,0004.72,0002.62
2022-05-29 09:34:00,,0813.0,5.02,0.00,29.4,28.3,00.0,38.3,31.2,14.4,0000.0,0017.02,0004.74,0002.60
2022-05-29 09:35:00,,0813.0,4.99,0.00,29.4,28.3,00.0,38.3,31.1,14.5,0000.0,0017.10,0004.78,0002.57
2022-05-29 09:36:00,,0813.2,4.99,0.00,29.3,28.2,00.0,38.3,31.1,14.6,0000.0,0018.52,0004.86,0002.53
2022-05-29 09:37:00,,0813.0,5.01,0.00,29.3,28.2,00.0,38.3,31.1,14.7,0000.0,0018.79,0004.88,0002.51
2022-05-29 09:38:00,,0813.2,5.00,0.00,29.3,28.2,00.0,38.3,31.1,14.7,0000.0,0018.74,0004.91,0002.49
2022-05-29 09:39:00,,0813.1,5.00,0.00,29.3,28.2,00.0,38.3,31.1,14.7,0000.0,0018.10,0004.84,0002.47
2022-05-29 09:40:00,,0813.2,5.00,0.00,29.3,28.2,00.0,38.3,31.1,14.8,0000.0,0017.39,0004.77,0002.44
2022-05-29 09:41:00,,0813.0,5.00,0.00,29.3,28.2,00.0,38.3,31.1,14.7,0000.0,0016.92,0004.75,0002.44
2022-05-29 09:42:00,,0813.0,5.00,0.00,29.3,28.3,00.0,38.3,31.2,14.7,0000.0,0016.40,0004.68,0002.41
2022-05-29 09:43:00,,0813.0,5.01,0.00,29.3,28.3,00.0,38.3,31.2,14.7,0000.0,0015.76,0004.66,0002.38
2022-05-29 09:44:00,,0813.0,4.99,0.00,29.4,28.3,00.0,38.3,31.2,14.7,0000.0,0015.83,0004.61,0002.36
2022-05-29 09:45:00,,0813.2,5.01,0.00,29.4,28.3,00.0,38.3,31.2,14.8,0000.0,0016.08,0004.63,0002.36
2022-05-29 09:46:00,,0813.1,5.00,0.00,29.4,28.3,00.0,38.3,31.2,14.9,0000.0,0016.45,0004.61,0002.35
2022-05-29 09:47:00,,0813.2,5.00,0.00,29.4,28.3,00.0,38.3,31.2,15.1,0000.0,0015.46,0004.56,0002.36
2022-05-29 09:48:00,,0813.0,5.00,0.00,29.4,28.3,00.0,38.3,31.2,15.3,0000.0,0016.38,0004.47,0002.37
2022-05-29 09:49:00,,0813.0,4.98,0.00,29.4,28.3,00.0,38.3,31.2,15.4,0000.0,0016.31,0004.46,0002.39
2022-05-29 09:50:00,,0813.0,5.01,0.00,29.4,28.4,00.0,38.3,31.2,15.5,0000.0,0016.06,0004.42,0002.40
2022-05-29 09:51:00,,0813.0,5.00,0.00,29.4,28.4,00.0,38.3,31.2,15.6,0000.0,0016.55,0004.39,0002.40
2022-05-29 09:52:00,,0813.0,5.00,0.00,29.4,28.4,00.0,38.3,31.3,15.4,0000.0,0017.26,0004.42,0002.42
2022-05-29 09:53:00,,0813.0,5.00,0.00,29.4,28.4,00.0,38.3,31.2,15.5,0000.0,0017.49,0004.46,0002.41
2022-05-29 09:54:00,,0813.0,4.99,0.00,29.4,28.4,00.0,38.3,31.3,15.9,0000.0,0018.40,0004.50,0002.43
2022-05-29 09:55:00,,0813.0,4.99,0.00,29.4,28.4,00.0,38.3,31.3,15.6,0000.0,0017.94,0004.53,0002.46
2022-05-29 09:56:00,,0813.1,5.00,0.00,29.4,28.4,00.0,38.3,31.3,15.5,0000.0,0018.20,0004.58,0002.49
2022-05-29 09:57:00,,0813.0,5.01,0.00,29.4,28.4,00.0,38.3,31.3,15.3,0000.0,0018.39,0004.61,0002.51
2022-05-29 09:58:00,,0813.0,5.00,0.00,29.4,28.4,00.0,38.3,31.3,15.2,0000.0,0018.24,0004.61,0002.53
2022-05-29 09:59:00,,0813.0,4.99,0.00,29.5,28.4,00.0,38.3,31.3,15.2,0000.0,0017.17,0004.70,0002.55
